Regional Weather Roundup
Issued by NWS State College, PA

Home | Current Version | Previous Version | Text Only | Print | Product List | Glossary On
Versions: 1 2 3 4 5 6 7 8 9 10 11 12 13 14 15 16 17 18 19 20 21 22 23 24 25 26 27 28 29 30 31 32 33 34 35 36 37 38 39 40 41 42 43 44 45 46 47 48 49 50
000
ASUS41 KCTP 130010
RWRCTP

REGIONAL WEATHER ROUNDUP
NATIONAL WEATHER SERVICE STATE COLLEGE PA
700 PM EST TUE DEC 12 2017

Note: "fair" indicates few or no clouds below 12,000 feet with no
significant weather and/or obstructions to visibility.

* = STATION THAT DOES NOT REPORT PRECIPITATION /E.G. RAIN...SNOW...ETC/
    THUNDER OR FOG.

PAZ002>004-007>009-013>016-020>023-029>032-130100-
WESTERN PENNSYLVANIA

CITY           SKY/WX    TMP DP  RH WIND       PRES   REMARKS
ERIE           LGT SNOW  17   8  67 NW22G31   29.76S VSB 1   WCI   0
MEADVILLE      LGT SNOW  12   8  84 W13G25    29.74R FOG     WCI  -3
FRANKLIN*      FLURRIES  10   6  84 W8        29.73R WCI  -2
NEW CASTLE     NOT AVBL
BEAVER COUNTY  LGT SNOW  16  12  86 W6        29.79R WCI   7
BUTLER*        CLOUDY    14   7  73 W9        29.78R WCI   2
PITTSBURGH INT LGT SNOW  19  12  74 NW14      29.80R WCI   6
PITTSBURGH     MOCLDY    16   6  65 NW10G22   29.78R WCI   4
INDIANA*       CLOUDY    18   7  62 NW12G22   29.77R WCI   5
LATROBE        LGT SNOW  16  14  93 NW15G26   29.79R WCI   1
WASHINGTON CO* LGT SNOW  17   9  70 W15G28    29.85R WCI   2
$$

PAZ004>006-010>012-017>019-024>028-033>037-041-042-045-046-049>053-130100-
CENTRAL PENNSYLVANIA

CITY           SKY/WX    TMP DP  RH WIND       PRES   REMARKS
BRADFORD         N/A     11   4  73 W13G21    29.59R WCI  -4
DUBOIS         MOCLDY    11   2  67 W16G22    29.66R WCI  -6
CLEARFIELD     MOCLDY    15   3  59 W15G21    29.68R WCI   0
JOHNSTOWN      LGT SNOW  13   6  74 NW22G29   29.63R WCI  -6
ALTOONA        CLOUDY    19   6  57 NW18G30   29.68S WCI   4
STATE COLLEGE  MOCLDY    18   5  57 W14G30    29.68R WCI   4
WILLIAMSPORT   CLOUDY    28  11  48 W16G23    29.64R
SELINSGROVE    MOCLDY    26   9  48 W8G21     29.67R
FT INDIANTOWN  MOCLDY    28   8  42 W21G33    29.63R WCI  15
CAPITAL CITY   PTCLDY    29   4  34 NW28G36   29.67R WCI  14
HARRISBURG     CLOUDY    29   9  43 NW29G37   29.66R WCI  14
YORK           PTCLDY    29  11  47 NW18G29   29.65R
$$

PAZ038>040-043-044-047-048-054-055-060>062-067>071-130100-
EASTERN PENNSYLVANIA

CITY           SKY/WX    TMP DP  RH WIND       PRES   REMARKS
SCRANTON       CLOUDY    29  15  56 NW14G23   29.53R
MOUNT POCONO   CLOUDY    25  17  72 NW17G23   29.42F WCI  12
ALLENTOWN      PTCLDY    34  18  52 W14G25    29.55R
QUAKERTOWN*    MOCLDY    32  19  59 NW6       29.55R
READING        CLEAR     31  14  49 NW24G37   29.59R
LANCASTER      FLURRIES  31  15  52 NW22G29   29.61R
COATESVILLE    PTCLDY    32  16  51 NW24G33   29.55F
POTTSTOWN      PTCLDY    32  18  56 NW15G24   29.57R
BLUE BELL      CLOUDY    34  21  60 NW13G20   29.55S
DOYLESTOWN     CLOUDY    33  20  58 NW10G22   29.52R
WILLOW GROVE   NOT AVBL
NORTH PHILA    CLOUDY    39  22  50 NW14G21   29.55R
PHILADELPHIA   CLOUDY    39  17  41 NW21G32   29.55R
$$



USA.gov is the U.S. government's official web portal to all federal, state and local government web resources and services.